FW7973 Weather Reports


time (UTC)temp
F
wind
direction
speed
knots
gust
knots
rain 1hr
in
rain 24hr
in
rain mn
in
humidity
%
barometer
mb
20260507141533 37 184 2.6 6.1 0.00 0.01 0.00 79 1016.1
20260507140032 37 166 1.7 7.0 0.00 0.01 0.00 79 1015.9
20260507134537 37 204 1.7 6.1 0.00 0.01 0.00 79 1016.1
20260507133037 37 131 2.6 6.1 0.00 0.01 0.00 79 1016.3
20260507131542 37 155 1.7 7.8 0.00 0.01 0.00 78 1016.1
20260507130038 37 269 2.6 7.0 0.00 0.01 0.00 79 1016.0
20260507124533 37 163 2.6 7.8 0.00 0.01 0.00 79 1016.1
20260507123032 37 189 1.7 6.1 0.00 0.01 0.00 79 1016.1
20260507121532 37 158 1.7 6.1 0.00 0.01 0.00 79 1016.0
20260507120030 37 149 3.5 7.0 0.00 0.01 0.00 79 1016.2
20260507114550 37 175 2.6 6.1 0.00 0.01 0.00 79 1016.3
20260507113031 37 178 2.6 6.1 0.00 0.01 0.00 79 1016.2
20260507111534 37 166 1.7 7.8 0.00 0.01 0.00 79 1016.1
20260507110031 37 190 1.7 5.2 0.00 0.01 0.00 79 1016.1
20260507104532 37 169 2.6 8.7 0.00 0.01 0.00 80 1016.3
20260507103033 37 182 0.9 5.2 0.00 0.01 0.00 80 1016.2
20260507101532 37 196 2.6 7.0 0.00 0.01 0.00 81 1016.1
20260507100033 37 195 1.7 5.2 0.00 0.01 0.00 81 1016.2
20260507094530 37 190 1.7 5.2 0.00 0.01 0.00 81 1016.1
20260507093030 37 166 1.7 5.2 0.00 0.01 0.00 80 1015.9
20260507091540 38 195 1.7 4.3 0.00 0.01 0.00 79 1015.8
20260507090037 38 160 1.7 5.2 0.00 0.01 0.00 78 1015.7
20260507084530 38 163 1.7 6.1 0.00 0.01 0.00 77 1015.7
20260507083033 38 216 2.6 6.1 0.00 0.01 0.00 76 1015.5
20260507081532 39 233 1.7 5.2 0.00 0.01 0.00 76 1015.5
20260507080035 39 195 0.9 6.1 0.00 0.01 0.00 75 1015.2
20260507074530 39 171 1.7 6.1 0.00 0.01 0.01 75 1015.1
20260507073032 39 156 1.7 4.3 0.00 0.01 0.01 74 1015.0
20260507071531 40 175 0.9 7.0 0.00 0.01 0.01 73 1014.9
20260507070033 40 157 1.7 6.1 0.00 0.01 0.01 73 1014.9
20260507064529 40 195 1.7 6.1 0.00 0.01 0.01 72 1014.8
20260507063029 40 163 0.9 4.3 0.00 0.01 0.01 70 1014.6
20260507061532 41 0 0.0 2.6 0.00 0.01 0.01 69 1014.4
20260507060032 41 0 0.0 7.8 0.00 0.01 0.01 67 1014.2
20260507054536 42 161 1.7 4.3 0.00 0.01 0.01 66 1014.0
20260507053033 42 192 0.9 7.0 0.00 0.01 0.01 65 1013.9
20260507051532 43 196 1.7 5.2 0.00 0.01 0.01 64 1013.7
20260507050029 44 180 1.7 5.2 0.00 0.01 0.01 63 1013.7
20260507044530 45 169 1.7 9.6 0.00 0.01 0.01 61 1013.5
20260507043032 45 186 2.6 7.8 0.00 0.01 0.01 61 1013.5
20260507041530 46 0 0.0 6.1 0.00 0.01 0.01 59 1013.4
20260507040033 46 207 2.6 10.4 0.00 0.01 0.01 58 1013.5
20260507034532 46 221 2.6 7.8 0.00 0.01 0.01 57 1013.4
20260507033032 46 220 3.5 7.8 0.00 0.01 0.01 57 1013.1
20260507031530 46 149 1.7 8.7 0.00 0.01 0.01 57 1013.0
20260507030031 47 161 1.7 7.8 0.00 0.01 0.01 55 1012.9
20260507024530 48 160 2.6 10.4 0.00 0.01 0.01 52 1012.5
20260507023032 49 141 3.5 11.3 0.00 0.01 0.01 50 1012.5
20260507021533 49 128 3.5 7.0 0.00 0.01 0.01 49 1012.3
20260507020043 48 244 3.5 10.4 0.00 0.01 0.01 51 1012.2
20260507014533 48 182 2.6 8.7 0.00 0.01 0.01 50 1012.3
20260507013046 49 175 1.7 7.8 0.00 0.01 0.01 50 1012.1
20260507011532 51 142 1.7 7.8 0.00 0.01 0.01 49 1012.1
20260507010035 50 175 1.7 7.8 0.00 0.01 0.01 53 1011.9
20260507004533 50 124 1.7 7.8 0.00 0.01 0.01 56 1011.7
20260507003041 49 169 3.5 11.3 0.00 0.01 0.01 57 1011.7
20260507001537 51 171 2.6 9.6 0.00 0.01 0.01 54 1011.6
20260507000034 49 213 1.7 6.1 0.00 0.01 0.01 55 1011.5
20260506234534 49 206 3.5 11.3 0.00 0.01 0.01 54 1011.4
20260506233032 49 0 0.0 7.0 0.00 0.01 0.01 59 1011.3
20260506231531 49 250 2.6 6.1 0.00 0.01 0.01 60 1011.3
20260506230030 49 205 1.7 7.8 0.00 0.01 0.01 58 1011.3
20260506224534 49 0 1.7 7.8 0.00 0.01 0.01 59 1011.3
20260506223041 49 236 3.5 8.7 0.00 0.01 0.01 60 1011.4
20260506221531 50 277 1.7 6.1 0.00 0.01 0.01 60 1011.5
20260506220033 49 0 0.9 5.2 0.00 0.01 0.01 65 1011.4
20260506214539 47 232 1.7 7.8 0.00 0.01 0.01 67 1011.5
20260506213030 48 200 0.9 2.6 0.00 0.01 0.01 69 1011.5
20260506211530 46 205 0.0 7.8 0.00 0.01 0.01 72 1011.3
20260506210032 47 229 1.7 5.2 0.00 0.01 0.01 72 1011.4
20260506204532 46 196 0.9 6.1 0.00 0.01 0.01 71 1011.4
20260506203033 45 167 1.7 4.3 0.00 0.01 0.01 75 1011.2
20260506201530 44 211 1.7 6.1 0.00 0.01 0.01 74 1011.3
20260506200030 43 197 0.9 5.2 0.00 0.01 0.01 78 1011.2
20260506194530 43 0 0.9 4.3 0.00 0.01 0.01 80 1011.3
20260506193032 42 180 1.7 5.2 0.00 0.01 0.01 82 1011.3
20260506191532 41 169 0.9 3.5 0.00 0.01 0.01 83 1011.4
20260506190032 40 153 0.9 3.5 0.00 0.01 0.01 84 1011.4
20260506184542 40 0 1.7 5.2 0.00 0.01 0.01 85 1011.4
20260506183038 40 194 1.7 5.2 0.00 0.01 0.01 85 1011.4
20260506181544 40 227 1.7 4.3 0.00 0.01 0.01 86 1011.3
20260506180034 39 157 0.9 3.5 0.00 0.01 0.01 88 1011.3
20260506174531 39 0 0.0 3.5 0.00 0.01 0.01 90 1011.5
20260506173031 38 218 1.7 3.5 0.00 0.01 0.01 89 1011.4
20260506171529 38 0 0.0 0.9 0.01 0.01 0.01 90 1011.4
20260506170028 38 0 0.0 0.9 0.01 0.01 0.01 89 1011.4
20260506164536 38 0 0.0 1.7 0.01 0.01 0.01 89 1011.3
20260506163032 38 0 0.0 3.5 0.01 0.01 0.01 89 1011.3
20260506161530 38 0 0.0 3.5 0.00 0.00 0.00 89 1011.3
20260506160030 38 0 0.0 4.3 0.00 0.00 0.00 89 1011.1
20260506154532 38 0 0.0 0.9 0.00 0.00 0.00 88 1011.1
20260506153036 38 0 0.0 0.9 0.00 0.00 0.00 88 1010.8
20260506151532 38 0 0.0 0.9 0.00 0.00 0.00 88 1010.9
20260506150034 37 0 0.0 0.0 0.00 0.00 0.00 89 1010.9
20260506144532 37 0 0.0 0.0 0.00 0.00 0.00 88 1010.9
20260506143032 37 0 0.0 0.0 0.00 0.00 0.00 89 1010.9